Regional Weather Roundup
Issued by NWS

Home | Current Version | Previous Version | Graphics & Text | Print | Product List | Glossary Off
Versions: 1 2 3 4 5 6 7 8 9 10 11 12 13 14 15 16 17 18 19 20 21 22 23 24 25 26 27 28 29 30 31 32 33 34 35 36 37 38 39 40 41 42 43 44 45 46 47 48 49 50

000
ASUS45 KBOU 211007
RWRCO

WEATHER ROUNDUP FOR COLORADO
NATIONAL WEATHER SERVICE DENVER/BOULDER CO
400 AM MDT TUE APR 21 2015

NOTE: "FAIR" INDICATES FEW OR NO CLOUDS BELOW 12000 FEET WITH NO
SIGNIFICANT WEATHER AND/OR OBSTRUCTIONS TO VISIBILITY.

COZ001>005-013-030-031-211100-
...NORTHWEST COLORADO...

CITY           SKY/WX    TMP DP  RH WIND       PRES   REMARKS
CRAIG          CLEAR     30  26  85 CALM      29.97S
HAYDEN         CLEAR     34  27  75 E8        29.98R WCI  27
MEEKER         PTCLDY    34  29  82 N6        29.98S WCI  29
MOUNT WERNER   NOT AVBL
STEAMBOAT SPGS CLEAR     30  27  86 CALM      29.99S
WALDEN         PTCLDY    27  21  80 SE5       29.99S WCI  21
$$

COZ006>008-011-211100-
...WEST CENTRAL VALLEYS...

CITY           SKY/WX    TMP DP  RH WIND       PRES   REMARKS
GRAND JUNCTION CLEAR     45  34  65 S8        29.92R
MONTROSE       CLEAR     37  31  78 SE7       29.98S
EAGLE          CLOUDY    30  30 100 CALM      30.05S
RIFLE          MOCLDY    37  32  82 E5        29.98R
DELTA          CLEAR     44  32  64 NE8       29.96S
NUCLA          CLEAR     37  28  70 SE7       30.00S
$$

COZ017>023-064>068-211100-
...SOUTHWEST COLORADO...

CITY           SKY/WX    TMP DP  RH WIND       PRES   REMARKS
DURANGO        CLEAR     30  17  58 CALM      30.02R
CORTEZ         CLEAR     29  21  72 E7        29.98S WCI  22
PAGOSA SPRINGS CLEAR     30  17  60 CALM      30.05S
TELLURIDE      CLEAR     33  22  64 SE6       30.10S WCI  27
WOLF CREEK PAS PTCLDY    27  10  50 SW12      30.19S WCI  16
$$

COZ009-010-012-014-032>034-037-058>063-211100-
...CENTRAL COLORADO...

CITY           SKY/WX    TMP DP  RH WIND       PRES   REMARKS
ASPEN          CLOUDY    32  25  75 SW7       30.02R WCI  26
BUENA VISTA    CLEAR     26  24  89 NW5       30.05S WCI  21
COPPER MTN     NOT AVBL
BERTHOUD PASS  LGT SNOW  19  10  68 W38G44    30.05F WCI  -1
COTTONWOOD PAS CLEAR     34  21  60 N5        30.06R WCI  30
GUNNISON       PTCLDY    28  21  74 CALM      30.09S
KREMMLING      CLEAR     28  23  80 CALM      30.04S
LEADVILLE      CLOUDY    19  15  84 VRB3      30.05S
MONARCH PASS   CLEAR     23  18  80 MISG      30.22S
SALIDA         CLEAR     33  29  87 NW6       30.11S WCI  27
SUNLIGHT       PTCLDY    30  27  86 CALM      30.13R
WILKERSON PASS MOCLDY    27  19  74 W9G20     30.09S WCI  17
$$

COZ069>075-211100-
...SAN LUIS VALLEY/SANGRE DE CRISTO MOUNTAINS...

CITY           SKY/WX    TMP DP  RH WIND       PRES   REMARKS
ALAMOSA        PTCLDY    23  18  81 S5        30.05R WCI  17
LA VETA PASS   CLEAR     28  21  74 S6G18     30.08S WCI  22
SAGUACHE       CLEAR     30  27  86 NE5       30.07R WCI  25
$$

COZ035-036-038>040-211100-
...NORTHERN COLORADO FRONT RANGE...

CITY           SKY/WX    TMP DP  RH WIND       PRES   REMARKS
DENVER INTL AP MOCLDY    40  34  79 SW10      29.94R
DMNS CITY PARK   N/A     39  32  76 S6        29.93S
AURORA         PTCLDY    37  31  78 SW6       29.95R
FRONT RANGE AP CLOUDY    41  34  75 SW8       29.95R
ERIE MUNI ARPT PTCLDY    37  35  92 CALM      29.93S
BOULDER MUN AP PTCLDY    41  32  70 CALM      29.93S
CENTENNIAL     PTCLDY    35  30  82 S3        29.94F
BROOMFIELD     MOCLDY    39  32  75 SW5       29.93F
FORT COLLINS   PTCLDY    39  32  75 CALM      29.93F
LONGMONT       MOCLDY    40  35  83 CALM      29.95R
$$

COZ041-046-047-076>085-087-088-211100-
...PIKES PEAK/PALMER DIVIDE AND SOUTHERN FOOTHILLS...

CITY           SKY/WX    TMP DP  RH WIND       PRES   REMARKS
COLO. SPRINGS  PTCLDY    36  32  85 E3        29.97F
A. F. ACADEMY  CLEAR     30  29  96 N7        29.96F WCI  23
ELLICOTT       CLEAR    N/A N/A N/A CALM      29.96F
FALCON         CLEAR     34  31  88 CALM      29.99S
FORT CARSON    FAIR      34  30  85 N8        29.95S WCI  27
LIMON          CLOUDY    32  30  92 N6        29.95S WCI  26
MONUMENT HILL  CLEAR     30  28  93 S7        29.96F WCI  23
TRINIDAD       CLEAR     39  32  76 W16       29.98F
$$

COZ042>045-048>051-090-091-211100-
...NORTHEAST COLORADO...

CITY           SKY/WX    TMP DP  RH WIND       PRES   REMARKS
GREELEY ARPT   CLOUDY    37  28  70 W3        29.93S
AKRON          PTCLDY    32  29  88 W10       29.92F WCI  24
BURLINGTON     CLEAR     35  30  82 W8        29.92S WCI  29
WRAY           CLEAR     32  30  93 SW8       29.91S WCI  25
STERLING       CLEAR     32  28  86 S6        29.91F WCI  26
HOLYOKE        CLEAR     36  32  87 NW5       29.91S
FORT MORGAN    CLEAR     33  30  89 CALM      29.93S
$$

COZ086-089-092>099-211100-
...SOUTHEAST COLORADO...

CITY           SKY/WX    TMP DP  RH WIND       PRES   REMARKS
PUEBLO         CLEAR     39  35  86 SE5       29.95R
LA JUNTA       CLEAR     42  34  73 W12       29.94S
LAMAR          CLEAR     36  34  92 SW7       29.92S
SPRINGFIELD      N/A     36  35  96 SW6       29.94S
$$


USA.gov is the U.S. government's official web portal to all federal, state and local government web resources and services.